Simultaneous Nadir Overpasses (SNOs) Predictions

Prediction of SNOs between AQUA and NPP Satellite Orbit:

Table of predicted SNOs for the next 14.0 days since TLE Epoch: 9/8/2017
Index Date (AQUA) Time (AQUA) Lat,Lon (AQUA) SZA (AQUA ) Date (NPP) Time (NPP) Lat,Lon (NPP) SZA (NPP ) Distance(km) Time Diff (sec)
1 09/10/2017 21:48:41 -75.07, -90.79 86.42 09/10/2017 21:48:29 -75.08, -90.75 86.42 1.38 12
2 09/10/2017 22:37:46 76.11, 79.85 92.43 09/10/2017 22:38:51 76.11, 79.84 92.38 0.38 65
3 09/13/2017 13:16:01 74.06,-145.02 95.62 09/13/2017 13:15:00 74.06,-145.01 95.67 0.43 61
4 09/13/2017 14:04:59 -75.54, 26.39 85.99 09/13/2017 14:05:15 -75.55, 26.44 86.02 1.74 16
5 09/16/2017 05:32:16 74.74, -27.53 95.84 09/16/2017 05:31:43 74.74, -27.47 95.85 1.88 33
6 09/16/2017 06:21:25 -75.65, 142.58 85.16 09/16/2017 06:22:10 -75.64, 142.50 85.18 2.44 45
7 09/18/2017 21:05:03 -55.40,-100.44 64.46 09/18/2017 21:03:50 -55.62,-101.68 64.05 81.65 73
8 09/18/2017 21:48:39 74.98, 88.98 96.53 09/18/2017 21:48:35 74.98, 88.95 96.54 1.03 4
9 09/18/2017 22:37:41 -76.23, -99.77 84.85 09/18/2017 22:38:54 -76.23, -99.75 84.92 0.58 73
10 09/21/2017 13:16:00 -74.00, 34.86 81.48 09/21/2017 13:15:08 -74.00, 34.82 81.42 1.19 52




NCC Satellite Simultaneous Nadir Overpasses (SNOs) Prediction Service
